Theta_e
311 311 312 312 312 312 312 312 312 312 312 311 311 311 310 310 309 309 308 308 307 307 306 305 305 304 303 302 301 301 300 300 299 299 299 299 299 299 299 299 299 299 299 299 299 298 298 297 297 296 296 296 295 295 295 295 295 295 295 295 295 296 296 296 296 297 299 301 303 305 307 310 312 315 318 320 322 323 323 322 322 322 323 324 324 324
309 309 309 309 309 310 310 309 309 308 308 308 308 309 309 310 310 310 309 309 308 308 307 307 306 306 305 304 303 302 300 299 298 298 297 297 297 297 297 297 297 297 298 298 298 298 298 297 297 296 296 295 295 295 295 295 295 295 295 295 295 295 295 295 296 296 297 298 300 302 304 307 310 313 315 318 321 322 323 323 322 322 322 323 323 324
305 305 306 306 306 305 305 305 304 303 302 303 303 304 306 307 308 309 309 309 308 306 305 303 303 302 303 302 302 300 299 298 297 296 296 296 296 296 296 296 296 296 296 296 297 297 297 296 296 296 295 295 295 295 295 294 294 294 294 294 294 295 295 295 296 296 296 297 298 300 302 304 307 310 313 316 319 321 322 323 322 322 322 322 323 323
300 300 301 302 302 302 301 301 301 300 300 300 300 301 301 302 302 302 302 303 303 302 300 298 297 297 297 298 297 297 296 295 295 295 295 295 294 294 294 294 295 295 295 295 295 295 296 296 296 296 296 296 295 295 295 294 294 294 294 294 295 296 296 297 297 297 296 296 297 298 299 301 304 306 310 313 316 319 321 322 322 322 321 322 322 323
297 297 297 297 297 298 297 297 297 296 297 297 297 297 296 296 296 296 295 295 295 295 295 294 294 294 294 294 294 294 294 293 293 293 293 293 293 293 293 293 293 294 294 294 294 294 295 295 296 296 296 296 296 296 295 295 294 294 295 295 296 297 298 298 298 298 297 297 297 297 298 299 301 303 306 309 313 316 319 321 322 322 322 321 322 322
295 295 295 295 295 294 295 294 294 294 294 294 294 294 294 294 293 293 293 293 293 293 293 293 293 293 292 292 292 292 292 292 292 292 292 292 292 292 292 293 293 293 293 293 294 294 294 294 295 295 296 296 296 296 296 295 295 295 296 297 298 299 300 300 300 299 298 298 298 298 298 298 299 300 302 305 309 313 316 319 321 322 322 322 322 322
295 294 294 294 294 293 293 293 293 293 293 293 293 293 292 292 292 292 292 292 293 293 293 293 292 292 292 291 291 291 291 291 291 291 291 292 292 292 292 292 292 292 293 293 293 293 294 294 294 295 296 296 296 297 297 296 296 297 297 299 300 301 301 301 301 300 300 299 299 298 298 298 298 299 300 302 305 308 312 316 318 320 321 322 322 321
294 293 293 293 292 292 292 292 292 292 292 292 292 292 291 291 291 291 291 291 291 291 292 292 292 291 291 291 291 291 291 291 291 291 291 291 291 292 292 292 292 292 292 292 293 293 293 294 294 295 295 296 297 297 297 298 298 298 299 300 301 301 302 302 301 301 300 300 299 299 298 298 298 298 299 300 302 304 307 311 315 318 320 321 321 321
291 291 291 291 291 291 291 291 291 291 291 291 291 291 291 291 291 291 290 291 291 291 291 291 291 291 291 291 291 291 291 291 291 291 291 291 291 291 291 291 291 291 291 292 292 292 293 293 294 294 295 296 297 297 298 299 299 299 300 300 301 301 301 302 301 301 301 300 299 299 298 298 298 297 297 298 299 301 303 306 310 313 317 319 320 321
289 289 289 289 289 290 290 290 290 290 290 290 290 290 290 290 291 291 291 290 291 291 291 291 291 291 291 291 291 291 291 291 291 291 291 291 291 291 291 291 291 291 291 291 291 292 292 293 294 294 295 296 297 298 299 299 300 300 300 301 301 301 301 301 301 301 301 300 300 299 298 297 296 296 296 296 297 298 299 302 305 308 312 315 317 319
288 288 288 288 288 288 289 289 289 289 289 289 289 290 290 290 290 290 291 290 290 290 291 291 291 291 291 290 290 290 290 290 290 290 290 290 290 290 290 290 290 290 290 290 291 291 291 292 293 294 295 296 297 298 299 299 300 300 301 301 301 301 301 301 301 301 301 300 299 299 297 296 295 294 294 295 295 296 297 299 301 303 306 310 313 316
289 288 288 288 288 288 288 288 288 288 289 289 289 289 289 289 289 290 290 290 290 290 290 290 290 290 290 290 290 289 289 289 289 289 289 289 289 289 289 289 289 289 289 290 290 290 291 291 292 293 294 295 296 297 298 299 300 300 300 300 301 301 301 301 301 300 300 299 299 297 296 295 294 293 293 293 295 296 297 297 298 300 302 305 308 312
289 289 289 289 289 289 289 289 289 289 289 289 289 289 288 289 289 289 289 289 289 289 289 289 289 289 289 289 289 289 289 289 289 289 289 289 289 289 289 289 289 289 289 289 289 290 290 290 291 291 292 293 294 295 297 297 298 299 299 299 299 299 300 299 299 299 298 298 297 296 295 294 293 292 292 293 294 295 296 297 298 298 299 301 303 307
289 289 289 289 289 289 289 289 289 289 289 289 289 289 289 289 289 289 289 289 288 288 288 288 288 288 288 288 288 288 288 288 288 288 288 288 288 289 289 289 289 289 289 289 289 289 289 290 290 290 291 291 292 293 293 294 295 295 296 296 296 297 297 297 297 296 296 295 294 294 293 292 292 291 291 292 293 294 295 296 297 298 298 298 300 302
290 290 290 290 290 290 290 289 290 289 289 289 289 289 289 289 289 289 289 289 288 288 288 288 288 288 288 288 288 288 288 288 288 288 289 289 289 289 289 289 289 289 289 289 289 290 290 290 290 290 290 290 290 291 291 291 292 292 292 293 293 293 293 294 294 293 293 293 292 292 292 291 291 291 291 291 292 293 294 295 296 297 298 298 298 300
289 289 289 289 289 289 289 289 289 289 289 289 289 288 288 288 288 288 288 288 288 288 288 288 288 288 288 288 288 288 288 288 288 289 289 289 289 289 289 289 289 289 289 289 290 290 290 290 290 290 290 290 290 290 290 291 291 291 291 291 291 291 291 291 292 291 291 291 291 291 291 291 291 291 291 291 291 291 292 294 295 296 297 298 298 298
289 289 288 288 288 288 288 289 289 288 288 288 288 288 288 288 288 288 288 288 288 288 288 288 288 288 288 288 288 288 288 288 288 288 288 288 288 288 289 289 289 289 289 289 289 289 289 289 289 290 290 290 290 290 290 290 290 290 290 290 290 290 290 291 291 290 290 290 290 290 290 290 290 291 291 291 291 291 291 292 293 294 296 297 298 298
288 288 288 288 288 288 288 288 288 288 288 288 288 288 288 288 287 287 287 287 287 287 287 287 287 287 287 287 287 287 288 288 288 288 288 288 288 288 288 288 288 288 288 288 289 288 289 289 289 289 289 289 289 289 289 289 289 290 290 290 290 290 290 290 290 290 290 290 290 290 290 290 290 290 290 290 290 290 291 291 292 293 294 296 297 298
288 288 288 287 287 287 287 287 287 287 287 287 287 287 287 287 287 287 287 287 287 287 287 287 287 287 287 287 287 287 287 288 288 288 288 288 288 288 289 289 289 289 289 289 288 288 288 288 288 288 288 288 288 288 288 289 289 289 289 289 289 289 289 289 289 289 289 289 290 290 290 290 290 290 290 290 290 290 290 290 291 291 292 294 296 297
287 287 287 287 287 287 287 287 287 287 287 287 287 287 286 286 286 286 286 286 286 286 287 287 287 287 287 287 287 287 287 287 287 288 288 288 289 289 289 289 289 288 288 288 287 287 287 288 288 288 288 288 288 288 288 288 288 288 288 289 289 289 289 289 289 289 289 289 289 289 290 290 290 290 290 290 290 290 290 290 290 290 291 292 294 296
286 286 286 286 286 286 286 287 287 287 287 287 287 286 286 286 286 286 286 286 286 286 287 287 287 287 287 287 287 286 286 287 287 288 288 288 288 288 288 288 288 288 288 288 288 288 288 288 288 288 288 288 288 288 288 288 288 288 289 289 289 289 289 289 289 289 289 289 289 289 290 290 290 290 290 290 290 290 290 290 290 290 290 291 292 294
287 287 287 287 287 287 287 288 288 288 288 288 287 287 287 287 287 286 286 286 286 286 286 287 287 287 287 287 287 286 286 286 287 287 287 288 288 288 288 288 288 288 288 288 288 288 288 288 288 288 288 288 289 289 289 288 288 289 288 289 289 289 289 289 289 289 289 289 289 290 290 290 290 290 290 290 290 290 290 290 290 290 290 290 291 293
287 288 288 288 288 288 288 288 288 288 288 288 288 288 287 287 287 287 287 287 287 287 287 288 288 287 287 287 287 287 287 287 287 287 287 287 287 287 288 288 288 288 288 288 288 289 289 289 289 289 289 289 289 289 289 288 288 288 288 288 288 288 289 289 289 289 289 289 290 290 290 290 290 290 290 290 290 290 290 290 290 290 290 290 290 291
288 288 288 288 288 288 288 288 288 288 288 288 288 288 288 287 287 287 287 288 288 289 289 288 288 288 288 287 287 287 287 287 287 287 287 288 288 288 288 288 288 288 288 288 288 289 289 289 289 289 289 289 289 289 289 288 288 288 288 288 288 288 288 289 289 289 289 289 289 289 290 290 290 290 290 290 290 290 290 291 291 291 291 290 290 290
288 288 288 288 288 288 288 289 289 289 289 289 289 289 288 288 288 288 289 289 290 289 289 289 288 288 288 287 287 287 287 287 287 287 288 288 288 288 288 288 288 288 288 288 288 289 289 289 289 289 289 289 289 289 288 288 288 288 288 288 288 288 288 289 289 289 289 289 289 289 289 290 290 290 290 291 291 291 291 291 291 291 291 291 291 290
288 288 288 288 288 288 288 288 288 289 289 289 290 290 289 289 289 289 290 290 290 289 289 288 288 288 287 287 287 287 287 287 288 288 288 288 288 288 288 288 288 288 288 288 288 289 289 289 289 289 289 289 289 288 288 288 288 288 288 288 288 288 288 289 289 289 289 289 289 289 290 290 291 292 292 292 292 292 292 292 292 292 292 292 291 291
287 287 287 287 287 287 287 287 287 287 288 289 289 289 290 289 289 290 290 290 290 289 288 288 287 287 287 287 287 287 287 288 289 289 289 289 289 289 289 289 289 289 289 289 289 289 289 289 289 289 289 288 288 288 288 288 287 288 288 288 288 288 289 289 289 289 289 289 289 290 291 291 292 293 293 293 293 293 293 293 293 293 293 292 292 292
286 286 286 286 286 286 286 286 286 286 286 287 288 288 289 289 289 289 289 289 289 288 287 287 287 287 287 287 287 288 288 288 289 289 289 289 289 289 289 289 289 289 289 289 289 289 289 289 289 288 288 288 288 288 288 287 288 288 288 288 288 288 288 288 288 288 288 289 289 290 291 291 292 292 293 293 293 293 293 293 294 293 293 293 293 292
286 286 286 286 285 285 285 285 285 285 285 285 286 287 288 288 288 288 288 288 287 287 287 287 287 287 287 287 287 287 287 287 287 287 288 289 290 290 290 290 290 290 289 289 289 289 289 289 288 288 288 288 288 288 287 288 288 288 288 288 288 288 288 288 288 288 288 288 289 289 290 291 291 292 292 292 292 293 293 293 294 294 294 294 294 293
285 285 285 285 285 285 285 285 285 285 285 285 285 285 286 286 286 286 286 286 286 286 286 286 286 286 286 287 287 287 287 287 287 287 288 289 289 290 290 290 290 289 289 289 289 288 288 288 288 288 288 288 287 287 287 287 288 288 288 287 287 287 287 288 288 288 288 288 289 289 290 290 291 291 291 292 292 292 292 293 293 293 294 294 294 294
285 284 284 284 284 284 284 284 285 285 285 285 285 285 285 285 285 285 285 285 285 285 285 285 286 286 286 287 287 287 286 286 287 287 287 288 288 288 288 288 288 288 288 288 288 288 287 287 287 287 287 287 287 287 287 287 287 287 287 287 287 287 288 288 288 288 288 289 289 289 290 290 291 291 291 291 291 291 291 291 292 292 292 293 293 294
284 284 284 284 284 284 284 284 284 284 284 284 284 284 284 284 284 284 284 285 285 286 286 286 286 286 286 286 286 286 286 286 286 286 287 287 287 287 287 287 287 287 287 287 287 287 287 287 287 287 287 287 287 287 287 287 287 287 287 287 287 287 288 288 288 288 288 288 289 289 290 290 290 290 291 291 291 291 291 290 290 290 291 292 293 294
283 283 283 283 283 283 283 283 283 283 283 283 283 283 284 284 284 285 286 286 286 286 286 286 286 286 286 286 286 286 286 286 286 286 286 286 286 286 287 287 287 287 287 287 287 287 287 287 287 287 287 287 287 287 287 287 287 287 287 287 287 288 288 288 288 289 289 288 288 289 289 289 289 289 289 289 290 290 290 289 289 290 291 292 293 294
283 282 282 282 282 282 282 282 282 282 282 282 283 283 283 284 284 285 285 285 285 285 285 285 285 286 286 286 286 286 286 285 285 285 285 286 286 286 287 287 287 287 287 287 287 287 287 287 287 287 287 287 287 288 288 288 288 288 288 288 288 288 288 288 288 289 289 289 289 289 289 288 288 288 288 288 289 289 289 289 289 289 290 292 293 294
282 281 281 281 281 281 281 282 282 282 282 282 282 282 282 283 283 284 284 284 285 285 285 285 285 286 286 285 285 284 284 284 284 285 285 285 285 285 286 286 286 286 286 286 287 287 287 287 288 288 288 288 288 288 288 288 288 288 288 289 289 288 288 288 289 289 289 289 289 289 289 288 288 288 288 288 288 288 288 288 288 289 290 291 293 294
281 281 281 281 281 281 281 281 281 281 281 281 281 281 282 282 283 284 285 285 285 285 285 285 285 285 285 284 284 284 284 284 284 284 284 284 284 284 284 285 285 285 285 286 286 287 287 287 288 288 289 289 288 288 288 288 288 288 288 288 288 288 288 288 289 289 289 289 289 289 288 288 288 288 288 288 288 288 288 288 288 288 289 291 292 293
280 280 280 280 280 280 280 280 280 281 281 281 281 281 282 282 282 283 283 283 283 283 283 283 283 283 283 283 283 283 283 283 283 283 283 283 283 283 284 284 284 284 285 285 286 286 286 287 287 287 287 288 288 288 288 287 287 287 287 287 288 288 288 288 288 288 289 288 288 288 288 288 288 288 288 288 288 288 288 288 288 288 289 290 291 292
280 280 280 280 280 280 280 280 280 281 281 281 281 282 282 282 282 282 282 282 282 282 282 283 283 283 283 283 283 283 283 283 283 283 283 283 283 283 283 283 283 283 284 284 285 285 285 286 286 286 286 286 286 286 286 286 286 287 287 287 287 287 287 287 287 287 287 287 287 287 287 288 288 288 288 288 288 288 288 288 288 288 289 289 290 291
279 279 279 279 280 280 280 280 280 281 281 281 281 282 282 282 282 282 282 282 282 282 282 282 282 282 282 283 283 283 283 283 283 283 283 283 283 283 283 283 283 283 283 284 284 284 284 285 285 285 285 285 286 286 286 286 286 286 286 286 286 286 287 287 287 287 287 287 287 287 287 287 288 288 288 288 288 288 288 288 288 288 288 289 289 290
279 279 280 280 280 280 280 280 281 281 281 281 281 281 281 281 281 281 281 281 281 281 281 281 281 281 282 282 282 282 282 282 282 282 282 283 283 283 283 284 284 284 284 284 284 284 284 285 285 285 285 285 285 285 285 286 286 286 286 286 286 286 286 286 286 287 287 287 287 287 287 287 288 288 288 288 288 288 288 288 288 288 288 288 289 289
279 280 280 280 280 280 280 281 281 281 281 281 281 281 281 281 281 281 281 281 281 281 281 281 281 281 281 281 281 282 282 282 282 282 283 283 284 284 284 284 285 285 285 285 285 285 284 284 285 285 285 285 285 285 285 286 286 286 286 286 286 286 286 286 286 286 287 287 287 287 287 287 287 287 288 288 288 288 288 288 288 288 288 288 288 289
280 280 280 280 280 280 280 280 280 280 280 280 280 280 280 280 280 280 280 280 280 280 280 280 280 280 281 281 281 281 282 282 283 284 284 285 285 285 285 285 284 284 284 284 284 284 284 284 284 284 285 285 285 285 286 286 286 286 286 286 286 286 286 286 286 287 287 287 287 287 287 287 287 287 288 288 288 288 288 288 288 288 288 288 288 288
279 279 279 279 279 279 279 279 279 279 279 279 279 279 279 280 279 279 279 279 280 280 280 280 280 280 281 281 281 282 282 283 284 284 284 284 284 284 284 284 284 284 283 283 283 283 284 284 284 285 285 285 285 286 286 286 286 286 286 286 286 286 286 286 287 287 287 287 287 287 287 288 288 288 288 288 288 288 288 288 288 288 288 288 288 288
278 278 278 279 279 279 279 279 279 279 279 278 278 279 279 279 279 279 279 279 279 279 280 280 280 280 281 281 281 281 282 282 282 283 283 283 283 283 283 283 283 283 283 283 283 283 284 284 285 285 285 285 286 286 286 286 286 286 286 286 286 287 287 287 287 287 287 287 287 287 287 288 288 288 288 288 288 288 288 288 288 288 288 288 288 288
278 278 278 278 278 278 278 277 278 278 278 278 278 278 278 278 279 279 279 279 279 279 279 279 279 280 280 280 280 280 280 281 281 282 282 282 282 282 282 282 282 282 282 282 283 283 284 285 285 286 286 286 286 286 286 286 287 287 287 287 287 287 287 287 287 287 287 287 287 287 287 288 288 288 288 288 288 288 288 288 288 288 288 288 289 289
278 278 278 278 277 277 277 277 277 277 277 277 277 278 278 278 278 278 278 278 279 279 279 279 279 279 279 279 280 280 280 280 280 281 281 282 282 282 282 282 282 282 282 282 283 283 283 284 285 285 286 286 286 287 287 287 287 287 287 287 287 287 287 287 287 287 287 287 287 287 287 287 287 287 287 287 288 288 288 288 288 289 289 289 289 289
278 278 278 278 277 277 277 277 277 277 278 278 278 278 278 278 278 278 278 278 278 278 279 279 279 279 279 279 279 280 280 280 280 281 281 281 281 282 282 282 282 282 283 283 283 283 283 284 284 284 285 285 286 286 287 287 287 287 287 287 287 288 287 287 287 287 287 287 287 287 287 287 287 287 287 287 287 288 288 289 289 289 289 289 289 290
278 278 278 278 278 278 278 278 278 278 278 278 278 277 277 278 278 278 278 278 278 278 278 279 279 279 279 279 279 279 279 280 280 280 281 281 281 282 282 282 282 283 283 283 283 284 284 284 284 284 284 285 285 285 286 286 286 287 287 288 288 288 288 288 288 288 288 287 287 287 287 287 287 287 287 287 287 288 288 289 289 289 289 289 290 290
278 278 278 278 278 278 278 278 278 278 278 278 278 277 277 278 278 278 278 278 278 278 278 278 278 279 279 279 279 279 279 279 280 280 281 281 282 282 282 282 282 283 283 283 283 284 284 284 285 285 285 285 285 285 285 285 286 286 286 287 287 287 287 287 287 287 287 287 287 287 287 287 288 288 288 288 288 288 288 289 289 289 290 290 290 291
278 278 278 278 278 278 278 278 278 278 278 278 278 278 278 278 277 277 278 278 278 278 278 278 278 279 279 279 279 279 279 279 280 280 281 282 282 282 282 282 283 283 283 283 283 283 284 284 284 285 285 285 285 285 285 286 286 286 286 286 286 286 287 287 287 287 287 287 288 288 288 288 288 289 288 288 288 288 289 289 289 290 290 290 291 291
278 278 278 278 278 278 278 278 278 278 278 278 278 278 278 278 278 278 278 278 278 278 278 278 278 278 279 279 279 279 279 279 280 280 281 282 282 282 282 282 282 282 282 283 283 283 284 284 284 285 285 285 286 286 286 286 286 286 286 286 287 287 287 287 287 287 288 288 288 288 289 289 289 289 289 289 289 289 289 289 289 290 290 290 291 291
Wind_Speed
25 26 26 26 27 27 27 27 26 26 26 26 27 27 27 28 29 30 30 31 31 30 30 30 30 31 32 32 34 35 37 38 38 38 38 38 38 38 38 38 38 38 38 38 38 39 39 39 39 39 38 38 37 36 35 34 34 33 33 33 32 32 31 31 31 32 33 34 34 34 34 34 33 32 30 30 30 30 30 29 27 25 23 24 28 32
27 27 27 27 28 28 28 28 27 26 25 26 27 29 30 32 33 34 34 34 33 32 31 31 32 33 34 34 36 38 40 40 40 39 38 38 38 38 38 38 38 38 38 38 39 39 39 39 38 38 38 38 37 36 36 35 35 34 34 34 34 34 33 33 32 33 33 34 35 35 36 35 35 34 32 32 32 32 31 30 29 27 25 25 26 29
29 29 28 28 27 26 27 26 25 24 24 25 27 29 30 32 33 34 34 34 33 32 30 30 31 33 35 36 38 40 41 41 40 39 38 38 38 38 38 38 38 39 39 39 39 39 38 38 38 37 37 37 37 37 36 36 35 35 35 35 34 34 34 34 34 34 34 34 35 35 36 36 36 36 34 34 33 34 33 32 30 28 27 26 26 28
30 29 29 28 27 26 26 25 24 25 26 27 28 29 30 31 32 32 32 31 31 30 29 29 30 33 36 38 39 40 41 40 40 39 39 38 38 38 38 38 39 39 39 39 39 39 38 37 36 36 36 36 36 36 36 36 35 35 34 34 34 34 34 34 34 34 34 34 34 35 36 37 37 37 36 35 35 35 35 34 32 30 29 28 28 28
28 27 26 26 25 25 24 23 23 24 25 26 27 27 28 29 30 30 30 30 30 30 30 30 32 34 36 38 38 39 39 39 39 39 38 38 38 38 38 38 38 39 39 39 38 38 37 36 35 34 34 35 35 35 35 35 34 34 33 33 33 32 33 33 33 33 33 33 33 34 35 36 37 38 38 37 37 37 37 36 35 32 31 30 29 29
26 24 23 23 22 22 23 23 23 24 25 26 27 27 27 28 29 30 31 31 31 32 32 33 34 35 36 37 37 37 37 38 38 38 38 38 37 37 37 37 37 38 38 38 37 37 36 35 34 33 33 33 33 34 34 33 33 33 32 32 32 32 32 32 32 32 32 31 32 33 34 35 36 37 38 38 38 38 38 38 38 36 33 32 31 31
26 26 25 24 25 25 25 26 26 26 27 28 29 29 30 30 31 31 32 33 34 34 35 35 35 36 36 37 37 37 36 36 36 36 36 36 36 36 36 36 36 36 36 36 36 35 35 34 33 33 32 32 32 32 32 32 32 31 31 31 31 31 32 32 32 32 31 31 31 31 32 33 35 36 38 39 39 39 39 39 39 39 36 34 33 33
28 28 27 27 27 27 28 28 28 27 28 28 29 30 31 32 32 32 32 32 32 33 33 34 35 35 35 36 36 35 35 35 35 35 34 34 34 34 34 34 34 35 35 35 35 35 34 34 33 33 32 32 31 31 31 31 31 31 31 31 32 32 32 33 33 33 32 31 31 31 31 32 33 35 37 38 39 40 40 40 41 41 40 37 35 34
29 29 29 28 27 27 28 28 28 27 27 27 28 29 30 31 31 31 31 31 31 31 31 31 32 33 33 33 33 33 33 33 33 32 32 32 32 32 32 32 33 33 34 34 34 34 34 34 34 33 32 32 31 31 31 30 30 30 31 32 32 33 33 34 34 34 34 33 32 31 31 31 32 33 35 37 38 39 40 40 41 42 42 41 38 36
29 29 29 29 28 28 27 28 28 28 27 27 27 28 28 29 30 30 30 30 30 30 29 30 30 31 32 32 32 31 31 31 31 31 31 31 31 31 31 31 32 33 33 34 34 34 34 34 34 34 33 32 32 32 31 31 31 31 31 32 33 33 34 35 35 35 35 35 34 33 32 32 32 33 34 35 37 38 39 40 41 42 43 43 41 39
28 29 29 29 29 29 28 29 29 29 28 28 28 28 28 27 27 28 29 30 30 30 29 30 30 31 31 32 32 32 32 32 32 32 32 31 31 31 31 32 32 33 34 34 34 35 35 35 35 34 34 34 33 33 32 32 32 32 32 33 33 34 35 36 36 37 37 37 37 36 35 34 33 32 33 34 35 36 38 39 40 41 43 43 43 42
27 28 28 28 28 29 29 29 29 29 29 28 29 28 28 27 26 26 28 30 31 32 32 32 32 32 33 33 34 34 34 34 35 34 34 33 32 32 32 33 33 34 34 35 35 35 35 36 36 36 36 36 35 35 34 34 34 34 34 34 35 35 36 37 38 38 39 39 39 38 37 35 34 33 32 32 33 34 36 37 38 40 41 43 43 43
27 27 27 27 28 28 28 28 28 28 28 27 27 27 28 28 27 28 29 31 32 33 34 34 35 35 35 34 35 35 35 36 36 35 35 34 33 33 33 33 34 34 34 35 35 35 36 36 37 37 37 37 37 37 37 37 37 36 36 36 37 37 38 39 39 40 41 41 41 40 39 37 35 33 32 32 32 32 34 35 36 38 39 41 42 43
26 26 26 27 27 27 27 27 27 27 27 26 26 26 27 27 27 28 29 30 31 31 31 32 34 35 34 34 33 33 33 33 33 33 33 33 32 32 32 32 33 33 33 34 34 34 35 35 36 37 37 38 38 39 39 39 39 39 39 39 39 39 40 40 41 41 42 42 41 40 39 37 35 34 32 31 31 32 32 33 34 36 38 39 40 42
25 25 25 26 26 26 26 26 26 27 27 26 26 26 26 27 26 26 27 28 29 29 30 31 32 33 33 32 30 29 28 28 28 29 29 29 29 29 29 30 31 32 32 32 33 33 33 33 34 35 36 36 37 37 38 38 39 39 39 39 39 39 40 40 41 41 41 41 40 40 39 37 36 34 33 32 32 32 32 32 33 34 36 37 38 40
22 22 23 24 24 24 24 24 25 25 26 27 27 27 27 27 27 27 27 28 29 29 29 30 31 32 31 29 27 25 24 24 24 25 26 27 28 27 27 28 30 31 32 32 33 33 32 32 33 33 34 34 35 35 35 36 36 36 37 37 37 38 38 38 39 39 39 39 39 39 38 37 36 35 34 33 33 32 32 32 33 33 34 35 37 38
22 22 22 23 23 23 23 23 23 24 26 26 27 27 27 27 27 27 27 28 28 28 28 28 27 28 28 28 26 23 21 21 23 25 26 29 30 29 28 29 31 32 33 33 34 34 33 33 33 33 33 34 34 34 34 34 35 35 35 36 36 36 36 37 37 37 38 38 38 38 38 38 37 37 36 35 34 33 33 33 33 34 34 34 35 36
24 23 23 24 24 24 24 24 24 25 26 26 26 26 26 25 25 25 26 26 26 26 27 26 25 25 25 26 25 23 21 22 25 27 29 31 32 31 29 29 31 33 34 34 34 34 33 33 33 34 34 34 34 34 35 35 35 35 36 36 36 36 36 36 36 37 37 37 38 38 38 38 38 38 38 37 36 35 35 34 34 34 34 34 35 36
27 26 25 25 26 26 26 26 26 25 25 24 24 24 25 25 25 25 26 26 26 26 26 25 24 24 24 25 25 25 23 24 25 27 29 31 32 30 27 27 29 32 34 35 34 33 33 32 32 32 32 33 33 34 34 35 35 35 35 35 36 36 36 36 36 36 37 37 37 38 38 39 39 39 39 39 38 37 37 36 35 35 35 35 35 35
29 28 26 27 28 28 27 26 25 24 24 24 24 24 26 26 27 27 28 27 26 25 23 23 23 23 23 24 25 24 23 23 24 26 27 28 29 28 26 28 31 33 35 35 34 32 31 30 30 29 29 30 30 31 32 32 33 33 34 34 34 34 34 34 35 35 36 36 37 37 38 39 39 39 40 40 39 39 38 37 37 36 36 36 36 36
26 26 25 24 24 25 25 24 23 22 22 22 23 25 26 26 26 26 26 24 23 23 23 23 24 24 24 25 26 26 25 25 26 27 29 31 32 32 30 30 31 33 34 34 32 30 29 28 28 28 27 28 28 29 29 30 31 31 32 32 32 32 32 33 33 33 34 35 35 36 37 38 38 39 39 39 40 39 39 39 38 37 37 37 37 37
23 23 21 20 20 22 23 23 22 21 21 21 21 22 22 22 23 23 22 21 22 23 24 24 25 27 28 29 31 31 29 28 29 30 31 33 35 34 31 30 30 32 33 33 31 29 28 27 27 27 27 27 27 28 28 29 30 30 31 31 31 31 31 32 32 32 32 33 33 34 35 36 37 38 38 39 39 39 39 39 38 38 38 37 37 38
22 22 22 21 21 22 23 24 24 24 23 23 23 24 23 23 23 24 24 24 24 25 26 27 28 29 30 31 32 33 32 30 29 28 30 33 34 33 31 29 30 32 33 33 31 30 29 28 28 27 27 27 27 28 28 29 29 30 31 31 31 31 31 31 31 30 30 31 31 32 33 34 35 36 37 38 38 38 38 37 38 38 38 38 38 38
22 23 23 23 24 25 26 27 27 27 27 27 27 27 26 26 26 26 27 28 28 28 28 27 27 27 28 28 29 30 30 28 26 26 29 32 34 33 31 29 30 32 34 33 32 31 30 29 28 27 27 28 28 28 29 30 30 30 30 30 30 30 30 29 29 28 28 28 28 29 29 31 32 33 34 35 35 35 35 36 36 36 37 37 38 39
22 23 23 24 24 25 26 27 28 28 29 29 29 29 29 29 29 30 31 31 30 28 27 26 26 26 26 26 28 28 28 25 25 26 29 32 34 33 31 29 29 31 33 33 32 31 30 30 29 28 28 29 30 31 31 31 31 30 29 29 28 28 28 27 27 26 25 25 25 25 25 25 26 27 28 30 31 32 33 34 34 34 35 36 37 39
21 21 21 22 23 24 24 25 25 26 27 28 29 29 29 29 30 31 32 31 28 24 23 23 25 26 27 28 28 28 27 25 24 26 29 32 33 32 31 29 29 31 33 33 31 30 30 30 29 29 29 31 32 33 34 33 32 30 28 27 26 26 25 25 24 24 23 22 22 22 22 22 22 23 24 25 27 28 30 32 33 33 34 35 36 38
22 23 23 24 25 25 25 25 25 26 26 26 26 26 26 27 28 30 31 28 24 22 23 25 27 28 29 29 29 28 26 25 26 26 27 29 32 33 31 29 29 32 34 33 32 31 30 29 29 28 29 32 34 35 35 34 31 29 26 25 24 23 23 23 23 22 22 22 22 21 21 21 22 22 23 24 25 27 28 29 31 32 33 34 36 37
28 28 29 29 29 29 29 29 29 29 28 27 26 25 24 24 26 29 30 28 26 27 30 30 30 30 30 30 28 27 27 28 28 27 27 28 32 34 32 30 31 33 34 33 32 30 28 27 27 27 28 31 33 34 34 32 30 27 25 24 23 23 23 23 23 23 23 23 23 23 23 22 22 23 24 25 26 26 27 27 28 29 31 33 35 36
32 32 33 33 33 32 32 32 32 32 31 30 29 28 26 26 27 29 30 30 30 32 33 32 31 30 31 31 30 29 29 29 28 26 25 27 31 34 31 29 29 30 30 29 27 26 25 24 24 25 27 30 31 32 32 31 29 27 26 25 25 25 25 25 25 25 25 25 25 25 25 24 24 24 25 27 27 27 27 27 27 28 29 31 32 34
31 32 33 33 32 32 32 32 32 32 32 32 31 31 31 31 31 32 33 33 32 33 33 32 32 31 31 31 30 29 28 26 23 21 21 24 27 27 25 22 23 23 23 21 21 22 24 23 23 23 26 27 28 29 30 30 29 28 28 28 28 28 27 26 26 26 26 26 26 27 27 27 27 27 28 29 29 29 28 28 28 28 29 29 31 31
29 29 30 30 30 30 31 31 31 31 31 31 31 32 33 33 34 35 34 34 33 32 32 33 32 31 30 28 27 27 26 23 20 18 19 22 25 25 22 21 22 24 22 20 20 22 24 24 23 22 24 26 28 28 29 29 30 30 30 30 30 30 29 27 26 26 26 26 27 27 28 28 29 30 31 31 31 30 30 29 29 29 29 30 30 30
28 28 28 29 30 31 31 31 31 31 31 31 31 31 31 31 31 31 31 30 30 30 31 32 32 31 30 28 29 30 29 26 23 21 21 24 26 27 25 24 27 28 27 24 23 24 25 25 24 23 25 28 30 30 31 32 33 33 33 33 32 31 30 28 27 26 25 25 26 27 27 28 30 31 32 33 33 32 31 31 30 29 30 31 32 32
29 29 29 30 31 31 30 30 30 29 29 29 29 29 28 27 27 27 27 27 28 29 29 30 30 30 30 30 32 32 31 28 25 23 22 24 26 27 26 25 27 28 28 26 26 27 27 28 28 28 29 32 34 35 36 36 36 36 34 33 32 31 31 30 27 26 25 25 26 27 28 30 32 33 35 35 35 34 33 32 30 29 29 30 31 31
31 31 31 30 30 29 28 27 27 27 27 27 26 26 26 26 27 28 28 28 29 30 30 29 28 28 29 30 30 30 29 28 26 24 23 24 25 26 26 26 26 27 27 27 28 28 28 31 32 33 34 35 36 36 36 36 36 34 32 30 29 30 30 29 28 27 27 27 27 28 30 33 34 35 36 35 35 34 33 32 30 28 28 29 29 29
31 30 29 28 27 26 26 25 25 24 24 24 24 24 25 25 25 25 25 26 25 25 25 25 25 27 29 30 31 31 31 31 30 28 26 25 25 26 27 28 28 28 28 29 29 28 28 31 32 33 33 33 32 32 31 30 29 28 27 26 27 28 29 29 28 27 28 29 30 32 34 35 36 35 34 33 32 31 30 30 29 28 28 29 29 28
27 26 25 25 24 24 23 22 22 21 21 21 21 21 20 20 20 21 22 22 22 22 23 24 26 28 31 33 35 35 34 33 32 29 27 26 26 27 28 29 29 28 29 30 29 29 28 29 30 30 29 28 28 27 26 25 25 25 26 27 27 28 29 29 29 29 30 32 34 36 37 37 36 34 32 30 29 28 28 28 27 28 29 30 31 30
22 22 21 21 21 20 20 19 19 19 20 20 20 20 19 18 18 20 22 22 23 24 25 26 27 29 31 33 34 35 34 33 31 29 27 26 26 27 28 29 29 29 29 30 30 30 30 30 30 31 30 30 29 29 28 27 28 29 30 30 30 30 31 32 32 32 34 36 38 39 39 38 36 33 31 29 28 28 27 27 27 27 28 30 32 33
20 20 20 19 19 19 19 19 19 19 20 21 21 22 21 21 21 21 22 22 23 24 24 25 26 27 28 29 30 31 31 31 30 29 28 27 27 28 29 30 30 30 30 30 30 31 30 30 31 31 32 32 33 33 33 32 32 33 33 32 32 32 33 34 34 35 37 39 40 41 40 38 35 33 31 30 29 29 28 27 26 26 27 29 31 33
20 20 20 20 20 20 20 20 21 22 23 24 24 24 24 24 24 24 24 24 25 25 26 27 28 28 29 29 29 30 31 31 31 31 31 30 30 29 29 29 30 30 30 30 30 31 31 31 31 32 31 32 33 33 33 32 32 32 32 33 33 34 35 34 35 36 37 39 39 39 38 37 35 33 31 30 30 29 29 27 26 25 25 26 29 32
21 21 21 21 21 21 21 22 23 24 25 26 26 26 26 26 26 27 27 28 29 30 31 31 32 32 33 33 33 34 34 34 34 33 32 31 29 27 26 27 28 29 29 29 30 31 31 32 33 33 32 32 32 32 31 32 32 32 31 31 31 32 33 33 33 34 35 37 37 37 37 35 34 32 31 30 30 29 29 28 27 25 24 25 26 29
21 21 21 22 22 22 23 24 24 25 26 27 27 28 29 29 29 29 29 30 30 31 31 31 30 31 31 32 33 33 32 32 31 30 28 26 24 23 24 25 27 28 29 29 30 31 32 33 34 34 34 35 34 33 34 33 33 31 30 30 31 32 33 33 33 33 34 35 35 35 34 33 32 31 31 30 30 30 30 30 29 28 26 25 25 26
21 21 22 22 23 23 24 25 26 27 28 28 29 29 29 29 28 28 27 27 27 27 26 26 26 27 28 29 30 30 29 27 25 23 22 21 22 23 25 26 27 28 28 30 31 32 33 34 34 34 34 35 35 35 35 35 35 33 32 32 33 34 34 34 33 33 32 32 32 32 31 31 31 31 30 30 31 31 31 31 32 31 30 28 27 26
21 22 22 23 24 25 26 26 27 27 27 27 26 26 25 24 23 23 23 24 24 25 25 25 25 26 27 29 29 28 26 24 23 23 24 26 27 28 29 30 31 32 32 31 32 33 33 34 34 35 34 34 34 35 36 36 35 34 32 32 33 32 31 32 32 30 29 29 29 29 29 30 30 30 31 31 32 33 33 34 33 33 32 30 28 27
22 23 23 24 25 25 25 25 25 25 25 25 24 24 23 21 20 21 21 23 24 24 25 25 25 26 26 27 28 29 30 31 31 31 30 30 31 31 31 31 31 31 31 31 31 32 33 34 35 35 34 34 34 34 35 36 36 35 34 34 34 33 32 33 32 31 29 29 29 30 30 30 31 31 33 34 36 36 36 36 35 33 31 29 28 27
24 25 25 26 26 26 26 25 25 25 24 24 24 23 22 21 21 21 22 23 24 25 25 25 25 26 28 29 30 31 32 32 31 30 29 27 26 25 25 25 25 25 26 27 28 30 32 34 35 35 34 35 35 36 36 37 37 37 36 36 35 35 36 36 34 32 31 31 31 31 32 32 33 33 35 36 38 38 37 36 34 32 30 28 27 27
26 26 27 27 26 26 25 25 25 25 25 24 24 23 23 22 22 22 23 23 24 25 25 25 25 26 27 29 29 29 29 30 30 29 28 27 25 24 23 22 22 22 22 23 25 27 29 31 33 33 34 35 36 37 37 36 36 36 36 35 35 35 35 35 35 34 33 33 33 34 34 34 34 34 36 37 38 37 35 34 32 30 28 26 25 25
26 27 27 27 27 26 26 25 25 26 26 25 25 24 23 23 23 23 23 23 24 25 25 25 25 26 27 28 28 28 28 30 31 31 29 28 26 26 24 23 22 22 21 22 23 24 26 28 30 31 32 33 34 35 35 35 35 35 35 35 35 35 35 35 35 35 35 35 36 36 35 34 34 34 35 36 36 35 34 32 30 28 27 25 24 23
27 27 28 27 27 27 27 26 26 26 27 27 26 25 24 23 23 23 24 24 24 25 25 25 26 26 27 28 27 27 27 28 29 30 29 28 26 25 25 24 23 23 22 22 22 22 23 24 26 27 29 31 33 34 35 35 34 34 34 34 33 33 33 34 35 36 37 38 38 37 35 33 33 33 33 34 34 34 33 32 30 27 26 24 23 22
27 27 27 27 27 27 27 27 27 27 27 27 27 26 25 24 23 23 24 24 25 25 25 25 26 26 27 27 27 26 26 27 27 28 28 27 25 24 24 23 23 23 24 24 25 25 25 25 25 25 26 28 30 33 34 34 34 34 34 34 34 33 33 35 37 38 38 38 36 34 32 31 31 32 32 33 34 34 33 32 30 28 25 24 23 22
27 26 26 27 27 27 27 28 27 27 27 27 27 27 26 25 25 24 24 24 25 25 25 25 25 26 27 28 27 27 26 26 27 27 26 25 24 24 24 24 24 25 26 27 27 28 28 28 28 27 25 25 26 28 30 31 32 32 33 33 33 33 34 35 36 36 35 33 31 29 29 29 29 30 31 33 34 35 34 33 32 29 25 23 23 23
27 27 26 27 27 27 28 28 27 27 27 27 27 27 27 27 26 25 25 24 24 24 24 25 25 26 27 28 28 27 26 26 26 27 26 25 24 24 25 25 25 26 26 27 27 27 26 26 26 27 27 26 24 24 25 26 27 27 29 29 29 29 30 31 31 30 28 27 26 26 27 28 29 30 31 32 33 34 34 34 33 30 26 24 24 24
Wind_Direction
274 272 270 268 266 264 262 260 259 257 253 249 246 246 248 249 250 252 255 259 262 264 266 268 270 271 273 274 276 277 277 277 276 275 275 275 275 276 276 277 278 279 279 280 280 280 280 280 279 279 279 279 278 278 278 277 276 276 275 274 272 269 267 263 260 257 254 252 251 251 251 252 253 253 254 253 251 249 249 250 252 253 254 250 243 236
283 281 279 277 276 275 274 274 275 275 272 266 259 255 252 251 250 251 252 254 257 260 263 266 268 268 268 269 270 271 273 275 275 275 274 274 274 275 275 275 276 277 278 278 278 279 279 279 278 278 278 278 278 277 277 276 275 274 274 273 272 270 268 265 262 258 255 253 251 250 250 250 250 251 251 251 250 250 249 249 249 249 249 249 246 241
293 292 289 288 286 285 284 284 283 282 280 277 273 269 265 262 259 258 256 256 257 259 263 267 269 269 267 265 265 266 269 271 273 273 273 273 273 273 274 274 275 275 276 276 277 278 278 278 278 278 277 277 277 276 276 275 274 274 273 272 272 270 268 266 263 259 256 254 252 250 249 249 249 249 249 250 249 249 249 249 248 246 245 246 246 244
296 296 295 294 292 290 288 287 284 280 278 277 278 279 279 278 276 275 273 271 270 271 272 273 272 269 267 265 265 266 268 270 271 272 272 272 272 272 273 273 273 273 274 275 276 276 277 277 277 277 277 276 276 276 275 275 274 274 273 272 271 269 268 266 263 261 258 255 253 251 250 249 248 248 248 248 248 248 248 248 247 245 243 243 243 243
294 294 295 295 294 291 288 284 280 276 275 275 276 278 280 281 282 282 282 282 281 279 277 274 271 269 268 268 268 268 269 270 271 271 271 271 272 272 272 272 272 273 273 274 275 275 276 276 276 275 275 275 275 274 274 274 273 273 272 271 270 268 267 266 265 263 261 258 256 253 251 250 249 248 247 247 246 246 247 247 247 245 243 241 240 240
287 287 287 286 284 281 278 274 271 269 269 270 270 270 271 272 274 275 275 275 275 274 273 271 270 269 270 270 270 270 270 270 270 271 271 271 271 272 272 272 272 273 273 274 274 274 275 274 274 273 273 273 273 273 273 272 272 271 270 269 268 267 267 267 266 266 264 262 259 257 254 252 250 248 247 246 246 245 245 246 246 245 243 240 238 237
282 281 280 278 275 274 272 270 268 268 269 270 271 271 270 270 270 271 271 271 271 271 271 270 270 270 270 270 271 271 270 270 270 270 270 271 271 271 271 271 271 272 272 272 273 273 273 272 272 271 270 270 270 269 269 269 268 267 266 266 265 266 266 267 267 267 267 265 263 260 258 255 253 251 249 247 246 245 244 244 245 245 244 242 239 236
278 278 277 276 275 275 273 272 271 272 273 274 276 276 276 276 275 274 274 274 274 273 272 271 270 269 269 269 269 270 270 270 270 270 270 270 270 270 270 270 270 270 270 270 270 270 270 270 269 269 268 267 266 266 265 264 263 263 262 262 263 264 265 266 267 268 268 267 266 264 262 259 257 254 252 249 247 245 244 243 244 244 245 243 240 237
276 277 277 276 276 277 277 276 275 275 276 277 278 280 281 282 282 281 280 279 279 278 277 275 274 272 271 270 270 270 270 271 271 271 271 270 270 269 269 269 268 268 268 268 268 268 268 268 268 267 266 265 263 262 261 259 258 258 259 260 261 262 264 265 267 268 269 269 268 267 266 264 262 259 256 253 250 247 245 244 243 243 244 244 242 239
274 276 277 277 277 277 278 279 279 279 278 279 279 281 282 284 285 285 284 283 281 280 279 279 278 277 276 275 274 273 273 272 272 271 271 271 271 270 270 269 268 268 267 267 267 267 267 267 266 265 264 263 261 260 258 256 256 256 257 258 259 261 263 264 266 268 269 270 270 270 269 268 267 264 261 258 255 251 249 246 244 243 243 243 243 242
277 277 278 279 279 278 279 279 280 281 281 281 281 281 282 282 283 284 284 282 281 280 280 279 278 278 279 279 278 277 276 275 274 273 272 272 271 271 270 270 269 268 267 267 266 266 266 265 265 264 263 261 260 259 257 256 255 255 255 257 258 260 261 263 265 267 269 270 271 272 271 271 270 268 266 263 259 256 253 250 248 245 244 243 243 243
281 282 283 283 283 283 283 282 282 283 283 284 283 283 282 281 281 281 282 282 282 282 281 280 280 279 279 280 281 280 280 279 278 277 276 274 273 272 271 270 269 268 267 267 266 265 265 265 264 264 263 261 260 259 257 256 256 256 256 257 258 259 260 262 264 266 268 270 271 272 272 271 271 269 267 265 262 260 257 254 252 249 246 245 244 243
286 287 287 287 287 288 288 288 287 287 287 288 288 288 287 286 284 284 283 283 283 283 284 284 283 283 282 282 283 283 283 283 282 281 280 279 277 275 273 272 270 269 268 267 266 265 265 264 264 263 262 262 261 260 259 258 258 258 258 258 258 259 260 261 263 265 267 268 270 271 271 271 270 268 267 265 263 261 260 257 255 253 250 247 245 244
295 295 295 295 294 294 294 294 295 295 295 294 294 293 292 291 290 289 288 286 286 287 287 287 287 286 286 286 286 286 287 286 286 285 284 282 280 278 276 274 272 271 270 269 267 266 265 264 264 263 263 262 262 261 260 260 260 260 260 260 260 260 261 261 262 264 265 267 268 269 269 269 268 267 265 263 262 261 260 259 258 256 253 251 248 245
303 304 302 301 301 301 301 301 302 301 300 300 299 298 297 296 296 295 294 292 292 292 292 291 290 289 289 289 290 290 290 290 289 287 285 282 279 277 276 275 274 272 271 270 269 268 266 266 265 264 264 263 263 262 262 262 262 261 261 261 261 261 261 262 262 263 264 265 266 267 268 268 267 266 265 263 261 260 259 259 259 257 255 253 251 247
302 303 301 301 302 302 303 305 305 305 304 304 304 303 303 302 301 300 298 297 297 298 298 297 296 295 293 292 292 293 293 291 288 285 282 279 277 275 275 274 273 273 272 270 270 269 268 267 267 266 266 265 265 264 264 264 263 263 263 262 262 262 262 262 262 262 263 264 265 266 267 267 267 267 265 264 262 260 259 258 258 258 257 256 253 250
296 297 297 298 299 299 300 302 302 302 302 303 303 303 303 302 302 301 300 299 299 299 299 299 299 298 297 296 294 292 291 289 285 282 280 278 276 275 274 273 273 272 271 270 269 269 269 269 269 268 268 268 267 267 266 266 265 265 265 264 264 263 263 263 263 263 263 264 265 266 267 267 268 267 267 265 263 261 259 258 257 257 257 256 255 252
293 294 294 295 295 295 296 296 296 296 297 298 299 299 299 298 298 298 297 297 296 296 296 296 295 293 294 295 294 293 293 291 288 285 284 282 281 280 280 278 275 274 273 271 271 271 272 271 271 271 270 270 269 269 268 268 267 267 267 266 266 266 265 265 264 264 264 264 265 265 266 267 267 267 267 266 265 263 261 259 257 256 256 256 255 254
291 291 292 292 293 293 294 294 294 294 295 294 295 295 294 292 292 291 290 291 291 292 293 293 291 290 290 290 293 297 300 299 295 292 290 289 289 290 288 284 280 278 278 278 278 277 277 276 274 273 272 271 270 269 269 268 268 268 268 268 267 267 267 266 266 265 265 265 265 265 265 266 267 267 267 266 265 264 262 260 258 257 256 255 255 254
291 292 292 293 294 295 295 295 295 296 295 294 292 290 289 288 288 288 287 289 290 291 291 289 287 287 289 291 294 298 302 300 296 292 289 288 287 286 283 281 281 282 283 284 285 285 284 282 280 277 274 272 271 270 269 269 268 268 268 268 268 268 268 267 267 266 266 265 264 264 264 265 265 265 266 266 265 264 263 262 260 258 256 255 254 254
294 295 297 299 299 298 297 300 302 304 303 301 296 293 291 291 290 289 289 290 290 290 288 285 284 286 290 293 296 298 300 297 292 288 286 285 283 282 281 282 284 285 286 288 289 290 290 288 285 281 278 275 273 272 271 270 270 270 270 269 269 269 268 268 267 266 266 265 264 263 263 263 263 263 264 264 264 264 263 262 261 259 257 255 254 253
298 300 303 304 303 302 303 307 310 311 311 308 304 301 300 299 296 294 293 293 291 289 287 285 288 293 297 298 300 303 303 300 294 289 287 285 284 284 286 287 288 288 288 290 292 293 292 290 287 284 281 278 276 275 274 274 274 273 273 272 271 270 269 268 267 267 266 265 264 263 262 261 261 261 261 262 262 263 262 262 261 259 258 256 254 253
301 303 306 307 307 307 308 310 311 311 311 309 306 304 303 302 300 298 298 296 294 292 291 292 295 297 298 299 301 303 303 300 297 292 286 281 281 283 287 290 290 290 290 292 295 296 294 291 288 286 283 281 279 279 279 279 279 278 277 275 273 271 269 268 267 267 266 265 264 263 262 261 261 260 260 260 261 261 261 261 260 259 258 256 254 252
303 304 306 306 307 307 307 308 308 307 306 305 304 303 302 301 300 300 300 297 293 291 290 290 291 291 292 294 297 298 297 296 294 289 281 277 278 281 285 288 289 289 290 293 296 297 295 292 290 288 286 284 284 285 285 286 286 284 280 277 273 270 269 267 267 266 266 266 266 266 265 264 263 261 261 260 260 260 260 260 259 258 257 255 254 252
298 299 299 300 301 301 302 302 301 300 299 298 297 297 297 298 299 300 298 294 289 284 282 282 283 285 290 294 295 294 293 292 289 285 279 275 275 279 282 284 286 287 288 291 293 295 294 292 290 290 289 288 289 291 292 292 291 288 283 278 274 270 268 266 266 266 266 267 268 268 268 267 266 265 264 263 262 261 259 258 258 257 256 255 253 252
290 289 290 291 292 293 293 294 293 293 293 292 291 291 291 293 295 295 292 288 283 280 279 282 286 290 294 296 295 293 292 292 289 283 277 273 272 274 279 282 284 285 286 287 288 289 290 289 289 289 290 291 293 294 296 295 294 290 285 280 274 271 268 267 266 266 267 267 268 268 269 270 270 270 269 267 265 262 260 258 256 255 255 254 253 252
287 286 285 286 286 287 287 287 287 287 287 287 286 286 285 285 285 284 284 283 283 286 289 292 293 295 296 295 293 292 293 293 289 284 279 275 273 274 277 281 283 283 283 283 283 284 284 285 286 288 290 292 294 296 296 296 294 290 286 282 278 275 272 271 269 269 268 268 268 269 270 272 272 271 270 268 266 265 262 260 258 256 255 255 254 253
290 289 289 288 288 288 287 286 284 283 282 282 283 282 281 278 277 278 279 283 287 291 293 294 294 294 294 292 290 289 290 289 288 287 287 285 280 277 278 279 280 279 279 279 280 280 280 281 283 286 289 291 294 295 295 295 293 290 288 286 285 284 282 279 276 274 272 270 268 269 270 271 271 269 268 268 267 267 266 264 263 261 259 258 256 255
295 293 292 292 291 291 290 288 286 284 282 280 279 279 278 277 277 277 279 283 287 290 290 290 290 289 288 287 288 288 287 286 286 287 288 286 281 278 279 278 277 276 276 277 280 280 279 278 282 286 288 290 292 293 294 293 292 290 290 290 292 292 290 287 282 278 274 271 269 268 268 268 267 267 268 269 269 269 269 269 267 265 263 261 259 258
297 296 295 294 294 293 292 290 289 287 285 282 279 277 276 277 277 278 280 284 286 287 286 286 285 284 283 285 287 287 286 285 285 285 283 279 278 279 281 282 280 279 279 283 286 286 282 280 281 284 286 288 289 290 291 290 290 288 289 291 293 295 294 290 285 279 275 271 270 269 268 266 266 267 268 269 270 270 270 270 270 270 268 265 262 259
296 296 295 294 293 292 291 290 289 288 287 285 283 281 279 279 279 281 283 285 285 284 282 281 280 279 279 281 283 284 284 283 283 280 276 273 275 278 284 286 285 284 284 287 289 288 287 285 284 284 285 285 285 284 285 286 285 285 285 287 290 293 294 292 286 279 273 271 270 270 270 269 269 269 269 269 269 268 269 270 271 271 269 266 263 259
293 293 292 291 290 289 288 287 287 287 287 286 286 285 285 285 285 285 285 284 283 282 280 278 277 277 277 277 278 278 279 280 279 277 275 273 274 278 281 282 282 281 282 281 280 280 283 285 285 284 284 284 283 281 280 281 281 282 282 284 287 291 294 294 289 280 273 270 269 270 272 274 275 275 274 272 270 269 269 269 270 269 267 265 262 259
291 291 291 289 288 288 289 289 288 288 288 287 287 288 288 287 286 284 282 281 280 280 280 280 279 279 278 277 276 274 275 276 278 278 279 279 279 280 281 280 280 280 280 279 276 275 277 280 283 284 283 283 282 281 279 279 279 279 280 281 285 290 295 295 290 281 272 269 269 271 275 279 281 281 279 276 273 271 271 271 270 266 262 261 260 260
291 290 290 290 290 290 291 291 290 289 288 287 285 284 282 279 277 276 277 277 276 276 275 277 280 281 280 278 276 275 276 277 280 282 284 283 282 282 283 283 282 283 284 283 282 279 278 280 282 283 282 282 281 279 278 277 277 277 278 279 284 289 294 294 289 280 271 267 269 274 280 284 286 285 282 278 274 273 273 273 270 264 258 255 255 259
293 293 293 293 293 293 293 293 292 291 290 288 286 284 281 279 279 280 280 279 276 274 273 274 275 278 280 282 282 282 283 284 286 288 287 284 282 281 282 282 282 283 285 285 285 283 281 282 283 282 280 279 278 276 275 275 276 277 278 280 284 288 290 288 283 276 269 267 270 276 282 287 288 287 283 279 275 274 274 273 270 263 255 250 249 253
296 297 297 297 296 297 296 296 297 297 297 297 297 296 294 291 289 288 287 285 282 281 280 278 275 274 276 280 283 285 286 288 289 290 289 286 284 282 281 280 280 280 281 281 280 280 280 281 281 281 280 279 279 279 278 278 280 281 282 283 284 285 284 282 277 272 268 268 271 277 282 286 287 286 283 280 277 276 275 274 270 263 255 249 246 248
300 301 302 302 302 301 301 302 303 303 302 302 302 302 302 299 293 288 286 286 287 286 285 282 279 276 275 276 279 282 284 287 289 289 288 287 286 284 281 279 278 277 276 275 276 276 276 277 277 278 278 278 278 279 280 280 281 281 281 282 281 280 279 276 273 270 268 269 272 277 281 283 284 284 283 282 282 280 278 275 270 264 257 251 248 248
307 308 310 309 307 305 305 305 304 303 303 303 303 302 302 300 297 294 292 290 289 288 287 285 283 280 278 278 278 280 283 285 287 287 286 286 286 285 282 280 278 275 273 272 272 272 272 273 274 274 275 274 274 275 276 277 278 278 278 277 277 275 274 272 271 270 270 271 273 276 278 280 281 282 284 285 286 285 282 278 272 265 259 254 251 250
312 312 312 309 308 307 307 306 306 306 307 307 306 304 302 300 298 296 294 292 290 288 287 286 285 283 281 280 279 279 281 282 283 284 285 286 287 286 283 280 277 275 273 271 270 270 269 269 269 270 272 273 273 274 274 275 275 275 276 276 276 274 272 271 271 271 272 273 275 276 277 278 280 282 285 287 288 287 285 282 277 270 263 258 254 251
314 313 310 308 308 308 306 306 307 307 307 305 303 300 298 296 295 294 292 290 289 288 287 286 286 285 284 282 281 280 280 281 282 284 287 288 287 285 281 278 276 275 274 273 272 270 269 268 268 268 269 271 272 274 274 274 274 275 276 276 275 274 274 273 273 273 274 275 276 277 277 279 281 283 285 287 287 287 287 286 283 278 271 265 260 256
312 309 307 308 307 307 305 304 303 301 299 297 295 293 292 292 292 292 291 291 290 290 290 290 290 290 289 287 286 285 285 286 287 289 290 289 287 283 279 277 276 276 276 275 274 273 272 271 270 270 271 271 272 273 273 274 274 274 274 273 272 274 276 276 275 275 276 277 277 278 278 280 283 284 285 285 286 287 287 287 286 284 278 273 267 261
308 306 305 305 304 302 300 297 295 294 293 292 291 292 292 292 293 294 295 295 295 295 296 296 296 295 294 295 295 296 296 296 295 293 288 284 280 278 276 275 275 276 276 276 276 275 274 274 273 272 272 273 273 273 274 275 276 275 273 272 273 275 277 277 277 277 277 278 279 279 280 281 282 282 282 282 282 283 284 284 284 283 282 278 272 264
306 304 303 302 300 298 297 298 298 299 299 299 299 299 300 302 303 304 304 302 301 301 302 301 299 297 296 296 296 295 292 287 283 278 275 272 271 272 273 273 274 275 275 275 275 275 275 275 274 274 274 275 274 273 273 274 275 275 272 272 272 272 272 274 276 277 277 278 279 279 279 279 278 278 277 277 277 278 280 280 280 280 279 277 273 267
307 307 307 308 308 309 310 310 311 311 311 311 310 310 311 313 314 312 308 305 302 302 301 301 300 297 294 291 289 287 284 281 278 276 275 274 274 274 274 275 274 274 274 272 272 272 274 274 274 274 275 275 274 272 272 273 274 274 273 274 272 270 268 272 275 277 277 277 277 276 276 275 274 273 273 274 275 276 277 278 278 278 277 274 270 264
314 315 316 317 317 317 316 316 316 316 315 313 312 312 313 314 313 309 306 303 302 301 300 299 298 296 293 292 291 291 293 294 293 292 291 289 288 286 284 282 280 278 274 270 268 268 271 273 274 275 276 276 274 272 271 272 273 274 275 274 273 272 271 274 276 276 274 275 275 275 275 274 273 272 272 272 274 275 277 278 279 279 277 273 268 262
320 319 318 318 317 316 314 314 315 316 314 312 312 312 313 313 312 309 307 304 303 302 301 301 299 296 294 294 295 296 297 297 298 299 300 299 298 297 296 293 290 286 280 273 267 264 265 268 271 274 276 276 275 273 273 272 271 272 273 272 271 270 270 271 272 272 272 273 275 277 279 278 275 273 272 273 275 276 278 279 279 279 277 274 269 262
319 318 316 316 316 315 315 316 317 316 315 313 312 312 313 313 312 310 308 306 305 303 303 302 299 296 294 293 294 294 294 296 297 298 299 299 300 299 299 298 296 294 289 284 277 270 264 262 263 266 270 272 272 272 272 271 271 271 271 272 271 270 268 268 269 270 272 273 276 279 282 280 276 274 274 275 278 279 280 280 280 279 277 273 268 262
317 316 316 317 317 317 317 317 317 316 315 314 313 313 313 312 311 309 308 307 306 304 303 302 300 297 295 295 294 294 293 294 295 297 298 299 300 300 301 300 300 299 297 295 292 287 281 274 269 266 265 266 268 269 269 269 269 270 271 271 271 269 268 268 269 271 272 275 277 280 280 278 275 273 274 276 278 280 282 282 281 279 275 270 265 261
318 317 318 318 318 317 317 317 317 316 315 314 313 312 313 313 311 309 307 307 307 306 304 302 301 299 297 297 297 297 296 295 296 297 300 302 303 304 305 305 304 304 302 302 300 299 296 293 287 280 273 268 266 267 267 267 267 268 268 268 268 267 267 267 269 271 273 275 278 279 279 277 276 276 276 274 275 277 280 282 282 279 273 267 262 260
321 320 319 319 318 317 317 318 317 315 314 314 314 313 313 313 312 310 309 308 308 307 306 304 302 301 300 300 301 301 300 300 300 301 304 307 308 308 308 308 307 305 304 303 302 300 298 296 294 291 285 278 273 270 269 269 270 270 269 268 267 266 266 267 269 271 274 276 278 279 280 279 279 279 277 274 273 275 278 281 282 279 271 264 261 261
324 322 321 320 319 318 317 317 317 316 316 315 315 315 314 313 313 312 312 311 310 309 308 307 305 303 302 302 303 304 303 303 302 303 306 309 310 308 308 308 307 304 301 299 297 294 291 290 289 289 287 285 281 277 274 274 274 274 273 272 271 270 268 269 270 273 275 277 279 280 281 281 281 280 278 275 273 273 275 277 279 278 270 263 261 263